{"data":{"norad_id":58041,"intl_designator":"2023-156P","name":"STARLINK-30542","alt_names":[],"object_type":"PAYLOAD","status":"ACTIVE","operator":null,"country":"US","launch_date":"2023-10-09","launch_site_code":"AFWTR","launch_vehicle":null,"mission":null,"orbit_class":"UNKNOWN","rcs_meters":null,"size_class":null,"mass_kg":null,"dimensions":null,"purposes":["comms"],"wikipedia_slug":null,"has_3d_model":false,"image_url":null,"decayed_at":null,"tle_current":{"epoch":"2026-09-20T22:45:19.677888Z","epoch_age_seconds":98941,"freshness":"FRESH","line1":"1 58041U 23156P   26263.94814442  .00000514  00000+0  26361-4 0  9991","line2":"2 58041  53.1587 249.2694 0001238  83.7578 276.3566 15.34387333166230","mean_motion":15.34387333,"eccentricity":0.0001238,"inclination_deg":53.1587,"raan_deg":249.2694,"arg_perigee_deg":83.7578,"mean_anomaly_deg":276.3566,"bstar":2.6361e-5,"rev_number":16623,"period_min":93.848532833267,"perigee_km":461.89398877685,"apogee_km":463.58779014228,"semimajor_km":6840.8778894596,"source":"CELESTRAK","updated_at":"2026-09-21T09:00:33.760367Z"}}}